STARLINK-1663 (46535 NORAD) Tracking and Keplerian Element Data

This shows tracking and keplerian element data for the satellite.

Feedback or suggestion? Click here.




ElementValue
Catalog46535
NameSTARLINK-1663
Epoch Orbit180
Epoch Day336.91667824
Epoch Year2020
RAAN172.7741
Inclination52.9992
Eccentricity0.00015
Argument of Perigee60.0852
Mean Anonmoly353.1176
Mean Motion15.05562786
Decay Rate0.00013919
L11 46535U 20070D 20336.91667824 .00013919 00000-0 97302-3 0 9996
L22 46535 52.9992 172.7741 0001500 60.0852 353.1176 15.05562786 1807

Live tracking and technical data element details for STARLINK-1663 (NORAD 46535). STARLINK-1663 can be tracked NOW for your location showing map with azimuth and elevation plus other details from your city location.

Track the satellite on the map from your city or location and see movement details for azimuth, elevation, latitude, longitude, range, height, and movement on the map or in text.







IsCatalogInMostPopularTable: catalog: 46535, numindb: 15
Update: records affected: 1



GetName: 46535 STARLINK-1663

Hit Count: updated at: Thu, 03 Dec 2020 07:22:00 GMT